Regional Weather Roundup
Issued by NWS New Orleans/Baton Rouge, LA

Home | Current Version | Previous Version | Text Only | Print | Product List | Glossary On
Versions: 1 2 3 4 5 6 7 8 9 10 11 12 13 14 15 16 17 18 19 20 21 22 23 24 25 26 27 28 29 30 31 32 33 34 35 36 37 38 39 40 41 42 43 44 45 46 47 48 49 50
000
ASUS44 KLIX 210810
RWRLIX
NEW ORLEANS REGIONAL WEATHER ROUNDUP
NATIONAL WEATHER SERVICE NEW ORLEANS LA
300 AM CDT MON APR 21 2014

NOTE: "FAIR" INDICATES FEW OR NO CLOUDS BELOW 12,000 FEET WITH NO
      SIGNIFICANT WEATHER AND/OR OBSTRUCTIONS TO VISIBILITY.
      SKY/WX - SKY CONDITION AND SIGNIFICANT WEATHER.
      TMP - AIR TEMPERATURE.     DP    - DEWPOINT TEMPERATURE.
      RH  - RELATIVE HUMIDITY.   PRES  - PRESSURE.
      HI  - HEAT INDEX.          WCI   - WIND CHILL INDEX.

*  THESE STATIONS ARE NOT NWS OR FAA STATIONS AND ARE NOT UNDER
   NWS QUALITY CONTROL.

LAZ038-040-048-061>063-065>067-069-210900-
SOUTHEAST LOUISIANA

CITY           SKY/WX    TMP DP  RH WIND       PRES   REMARKS
N.O. AUDUBON     N/A     62  58  88 MISG        N/A
N.O. INTL ARPT PTCLDY    61  57  87 SE7       30.13F
N.O. LAKEFRONT CLEAR     62  58  86 S3        30.14S
N.O. DOWNTOWN* PTSUNNY   64  55  72 S3        30.14S
SLIDELL        CLEAR     57  54  89 CALM      30.13F
BATON ROUGE    CLEAR     61  55  81 E3        30.12R
BOOTHVILLE     CLEAR     59  57  93 CALM      30.13S
BELLE CHASSE   CLOUDY   N/A N/A N/A CALM      30.13S
BOGALUSA*        N/A     59  56  89 CALM      30.15S
GALLIANO*      SUNNY     62  58  88 CALM      30.13S
NEW ROADS*       N/A     62  58  87 E7        30.12R
GONZALES*      PTSUNNY   64  64  99 SE5       30.12S
HAMMOND*       CLOUDY    64  59  82 CALM      30.14S
HOUMA*           N/A     61  58  89 E5        30.13S
PORT FOURCHON* SUNNY     64  59  82 SE5       30.14S

$$

MSZ070-080>082-210900-
SOUTHERN MISSISSIPPI

CITY           SKY/WX    TMP DP  RH WIND       PRES   REMARKS
MCCOMB         CLOUDY    62  60  93 S9        30.13S
GULFPORT       CLEAR     60  56  86 CALM      30.12F
BILOXI         CLEAR     61  59  94 N1        30.12F
PASCAGOULA     CLEAR     54  53  97 CALM      30.13S FOG

$$

COASTAL OBSERVATIONS
LAKE AND NEARSHORE STATIONS

STATION/POSITION TIME  TEMP    WIND        PRES    WAVE
                       AIR SEA DIR/SP/G            HT/PER
                 (UTC) (F)     (DEG/KT/KT) (MB)    (FT/S)
PASCAGOULA       0800   63     130/  4/  5 1019.6
WAVELAND YACHT   0800   64 70  160/  6/  9 1019.3
GRAND ISLE       0800   64 69  130/  4/  6 1020.4
SOUTHWEST PASS   0800   62 58   40/  6/  6 1019.9
NEW CANAL        0800   62 68  190/  3/  4 1020.7
SHELL BEACH      0800   63 67  120/  4/  6 1020.0

OFFSHORE STATIONS

STATION/POSITION TIME  TEMP    WIND        PRES    WAVE
                       AIR SEA DIR/SP/G            HT/PER
                 (UTC) (F)     (DEG/KT/KT) (MB)    (FT/S)
64 S DAUPHIN ISL 0731   63 70  110/  8/ 10 1019.8

$$




USA.gov is the U.S. government's official web portal to all federal, state and local government web resources and services.